SPACEBEE-6

Last updated on Sat Jan 11 2025 00:03:37 GMT+0000 (Coordinated Universal Time)

1 43818U 18099BN 25010.42763250 .14080169 25803-5 94992-3 0 9996 2 43818 97.4841 92.5964 0012014 288.0756 71.9235 16.40382962334882

Satellite not in orbit